�N����,����,�~����,�C��,���x,�C��,����,���ϕ���,�ő�u�ԕ���,�ő厞����,���˗�,�I�_���x,�n�����x,�ő啗���N��,DTYPE
"23/09/21","00:10",0.0,23.8,94.1,1006.2,160.5,0.3,1.0,151.1,0.00,22.8,25.4,"00:08:48",1
"23/09/21","00:20",0.0,23.8,94.1,1006.2,305.2,1.0,1.9,316.1,0.00,22.8,25.1,"00:10:02",1
"23/09/21","00:30",0.0,23.7,94.1,1006.4,331.0,1.1,2.4,332.7,0.00,22.7,25.3,"00:20:40",1
"23/09/21","00:40",0.0,23.7,94.2,1006.0,328.6,0.8,1.6,324.3,0.00,22.8,25.3,"00:37:44",1
"23/09/21","00:50",0.0,23.7,94.2,1006.2,305.1,0.7,1.3,268.4,0.00,22.8,25.1,"00:42:56",1
"23/09/21","01:00",0.0,23.6,94.2,1005.7,306.5,0.8,1.2,308.2,0.00,22.7,25.1,"00:57:04",1
"23/09/21","01:10",0.0,23.6,94.2,1006.0,318.1,1.0,1.7,324.7,0.00,22.7,25.4,"01:09:28",1
"23/09/21","01:20",0.0,23.5,94.2,1006.0,285.4,0.7,1.8,327.3,0.00,22.6,25.2,"01:10:16",1
"23/09/21","01:30",0.0,23.4,94.2,1006.0,295.0,0.7,1.2,321.6,0.00,22.5,25.3,"01:26:32",1
"23/09/21","01:40",0.0,23.4,94.2,1006.4,303.7,0.5,1.1,314.9,0.00,22.5,25.2,"01:39:44",1
"23/09/21","01:50",0.0,23.4,94.2,1006.2,307.7,0.8,1.4,334.9,0.00,22.5,25.1,"01:45:12",1
"23/09/21","02:00",0.0,23.4,94.2,1005.7,314.0,1.0,1.7,319.4,0.00,22.5,25.1,"01:52:16",1
"23/09/21","02:10",0.0,23.4,94.3,1005.5,281.9,0.5,0.9,271.2,0.00,22.5,25.2,"02:05:12",1
"23/09/21","02:20",0.0,23.4,94.3,1005.7,303.3,0.5,1.2,327.4,0.00,22.5,25.1,"02:19:44",1
"23/09/21","02:30",0.0,23.4,94.3,1005.5,313.7,0.8,1.3,331.1,0.00,22.5,25.2,"02:29:44",1
"23/09/21","02:40",0.0,23.4,94.3,1005.0,329.0,1.1,1.6,336.2,0.00,22.5,25.1,"02:36:40",1
"23/09/21","02:50",0.0,23.3,94.3,1005.7,316.4,0.7,1.0,327.8,0.00,22.4,25.1,"02:40:08",1
"23/09/21","03:00",0.0,23.4,94.4,1005.5,282.6,0.6,1.0,291.7,0.00,22.5,25.1,"02:55:28",1
"23/09/21","03:10",0.0,23.4,94.4,1005.5,299.1,0.5,0.6,285.6,0.00,22.5,25.1,"03:00:16",1
"23/09/21","03:20",0.0,23.5,94.4,1005.0,293.3,0.3,0.9,269.4,0.00,22.6,25.1,"03:17:04",1
"23/09/21","03:30",0.0,23.5,94.4,1005.0,320.9,0.5,1.0,319.6,0.00,22.6,25.3,"03:29:20",1
"23/09/21","03:40",0.0,23.7,94.4,1004.5,342.3,0.8,1.4,353.8,0.00,22.8,25.1,"03:36:00",1
"23/09/21","03:50",0.0,23.6,94.4,1004.5,291.5,0.6,1.0,320.0,0.00,22.7,25.2,"03:40:56",1
"23/09/21","04:00",0.0,23.6,94.5,1004.5,294.5,0.7,1.0,332.3,0.00,22.7,25.1,"03:52:32",1
"23/09/21","04:10",0.0,23.6,94.6,1004.5,329.9,1.0,1.4,333.9,0.00,22.7,25.1,"04:08:32",1
"23/09/21","04:20",0.0,23.6,94.6,1004.3,318.0,0.7,1.6,335.5,0.00,22.7,25.0,"04:11:52",1
"23/09/21","04:30",0.0,23.7,94.6,1004.5,317.1,1.0,1.3,304.8,0.00,22.8,25.0,"04:25:36",1
"23/09/21","04:40",0.0,23.7,94.6,1004.5,297.7,0.5,1.2,326.8,0.00,22.8,24.7,"04:30:48",1
"23/09/21","04:50",0.0,23.7,94.6,1004.8,295.7,0.7,1.2,253.3,0.00,22.8,24.8,"04:40:40",1
"23/09/21","05:00",0.0,23.7,94.7,1004.5,294.2,0.6,0.9,286.3,0.00,22.8,25.0,"04:51:12",1
"23/09/21","05:10",0.0,23.8,94.7,1004.8,280.4,0.3,0.9,257.2,0.00,22.9,25.0,"05:04:08",1
"23/09/21","05:20",0.0,23.8,94.7,1004.5,312.2,0.7,1.1,330.8,0.00,22.9,25.2,"05:17:52",1
"23/09/21","05:30",0.0,23.9,94.7,1004.8,331.9,0.8,1.3,336.2,0.00,23.0,25.0,"05:28:48",1
"23/09/21","05:40",0.0,23.8,94.8,1005.2,330.3,1.0,1.9,347.4,0.00,23.0,25.3,"05:39:28",1
"23/09/21","05:50",0.0,23.7,94.8,1005.0,327.9,0.8,1.7,346.7,0.00,22.9,25.2,"05:40:56",1
"23/09/21","06:00",0.0,23.8,94.9,1005.0,303.7,0.8,1.6,330.3,0.00,23.0,25.2,"05:57:36",1
"23/09/21","06:10",0.0,23.8,94.9,1004.5,301.6,0.6,0.9,323.9,0.00,23.0,25.0,"06:05:36",1
"23/09/21","06:20",0.0,23.9,94.9,1004.3,320.0,0.6,1.2,264.1,0.00,23.1,25.0,"06:15:36",1
"23/09/21","06:30",0.0,23.9,94.9,1004.8,281.6,0.6,1.0,319.3,0.00,23.1,24.9,"06:22:08",1
"23/09/21","06:40",0.0,24.0,95.0,1004.5,261.8,0.3,0.8,221.6,0.00,23.2,24.9,"06:31:04",1
"23/09/21","06:50",0.0,24.2,95.0,1004.5,332.8,1.1,1.7,337.6,0.01,23.4,25.0,"06:48:00",1
"23/09/21","07:00",0.0,24.3,95.0,1004.3,319.8,1.0,1.4,339.3,0.00,23.5,25.1,"06:50:08",1
"23/09/21","07:10",0.0,24.3,95.0,1004.5,267.1,0.6,1.2,253.9,0.02,23.5,25.0,"07:07:52",1
"23/09/21","07:20",0.0,24.4,95.0,1004.5,292.8,0.7,1.3,323.6,0.01,23.6,25.1,"07:11:28",1
"23/09/21","07:30",0.0,24.6,95.0,1004.5,297.8,0.5,0.8,285.6,0.01,23.8,25.0,"07:20:24",1
"23/09/21","07:40",0.0,24.8,94.9,1004.5,332.0,1.0,1.6,339.2,0.04,24.0,25.1,"07:32:24",1
"23/09/21","07:50",0.0,24.7,94.9,1005.0,317.2,1.3,2.0,326.8,0.05,23.9,25.1,"07:45:28",1
"23/09/21","08:00",0.0,25.2,94.8,1004.1,237.9,0.2,1.1,252.6,0.05,24.3,25.0,"07:51:12",1
"23/09/21","08:10",0.0,25.5,94.7,1004.3,264.5,0.1,0.4,167.3,0.07,24.6,25.0,"08:00:16",1
"23/09/21","08:20",0.0,25.6,94.6,1004.1,300.9,0.6,1.6,341.8,0.06,24.7,25.0,"08:14:56",1
"23/09/21","08:30",0.0,25.6,94.3,1004.5,262.4,0.3,0.9,258.0,0.02,24.7,25.1,"08:28:08",1
"23/09/21","08:40",0.0,25.6,94.3,1004.5,298.4,0.6,1.0,329.6,0.02,24.7,25.1,"08:35:28",1
"23/09/21","08:50",0.0,25.4,93.9,1004.3,257.5,0.3,0.8,214.1,0.01,24.4,25.0,"08:45:44",1
"23/09/21","09:00",0.0,25.4,94.0,1004.8,313.9,0.8,1.7,340.3,0.02,24.4,25.0,"08:58:16",1
"23/09/21","09:10",0.0,25.5,93.8,1004.5,302.2,0.7,1.2,318.5,0.06,24.5,24.9,"09:07:20",1
"23/09/21","09:20",0.0,25.5,93.4,1004.8,326.8,1.0,1.8,339.7,0.04,24.4,25.2,"09:15:12",1
"23/09/21","09:30",0.0,25.5,92.7,1004.5,335.0,1.0,2.1,336.4,0.05,24.3,25.2,"09:29:44",1
"23/09/21","09:40",0.0,25.8,92.5,1004.5,317.1,0.7,1.3,336.3,0.07,24.5,25.0,"09:38:00",1
"23/09/21","09:50",0.0,26.0,91.7,1004.3,329.8,0.6,1.1,357.7,0.12,24.6,25.2,"09:48:56",1
"23/09/21","10:00",0.0,26.8,91.0,1003.8,303.8,0.3,1.3,43.5,0.15,25.2,25.2,"09:58:00",1
"23/09/21","10:10",0.0,26.7,89.1,1003.8,24.3,0.6,1.3,231.9,0.11,24.8,25.0,"10:08:56",1
"23/09/21","10:20",0.0,26.9,88.0,1003.6,162.1,0.2,0.9,97.5,0.06,24.8,25.3,"10:11:52",1
"23/09/21","10:30",0.0,27.3,86.7,1003.1,71.7,0.6,1.9,42.5,0.10,24.9,25.1,"10:20:02",1
"23/09/21","10:40",0.0,27.7,85.5,1002.9,73.9,0.7,1.9,88.7,0.14,25.1,25.3,"10:37:20",1
"23/09/21","10:50",0.0,28.1,84.2,1002.6,168.1,0.8,2.6,223.1,0.12,25.2,25.4,"10:47:36",1
"23/09/21","11:00",0.0,28.4,82.7,1002.9,221.7,0.7,2.6,178.4,0.14,25.2,25.3,"10:56:48",1
"23/09/21","11:10",0.0,28.7,80.5,1002.6,170.6,1.2,3.4,191.8,0.10,25.1,25.3,"11:09:36",1
"23/09/21","11:20",0.0,28.6,79.7,1002.2,201.1,2.1,5.7,209.5,0.05,24.8,25.5,"11:18:48",1
"23/09/21","11:30",0.0,28.7,79.5,1002.2,205.5,1.7,4.2,217.7,0.03,24.8,25.3,"11:21:12",1
"23/09/21","11:40",0.0,28.6,79.7,1001.9,203.1,1.3,3.5,225.1,0.06,24.8,25.4,"11:34:32",1
"23/09/21","11:50",0.0,29.0,79.4,1001.9,205.6,1.6,6.4,237.2,0.11,25.1,25.4,"11:47:12",1
"23/09/21","12:00",0.0,29.3,77.6,1001.5,200.2,2.3,5.1,235.3,0.16,25.0,25.4,"11:58:48",1
"23/09/21","12:10",0.0,29.5,76.6,1001.9,196.0,1.8,4.2,222.8,0.15,25.0,25.7,"12:05:12",1
"23/09/21","12:20",0.0,30.0,75.1,1001.9,216.0,1.5,5.9,237.4,0.18,25.1,25.2,"12:16:24",1
"23/09/21","12:30",0.0,30.2,74.6,1002.2,204.4,1.6,4.2,217.0,0.18,25.2,25.6,"12:20:24",1
"23/09/21","12:40",0.0,30.3,74.1,1001.9,230.4,1.6,6.7,207.9,0.18,25.2,25.6,"12:30:32",1
"23/09/21","12:50",0.0,30.2,74.0,1002.2,211.0,2.5,5.1,230.2,0.18,25.1,25.5,"12:40:56",1
"23/09/21","13:00",0.0,30.3,73.7,1001.9,260.3,1.3,4.5,230.5,0.19,25.1,25.5,"12:50:56",1
"23/09/21","13:10",0.0,30.3,73.6,1001.7,263.0,1.3,4.9,226.5,0.17,25.1,25.7,"13:03:28",1
"23/09/21","13:20",0.0,30.2,73.5,1001.7,250.1,2.0,4.8,232.4,0.20,25.0,25.6,"13:12:16",1
"23/09/21","13:30",0.2,30.3,73.3,1001.2,256.5,1.8,3.6,245.5,0.20,25.0,25.7,"13:26:32",1
"23/09/21","13:40",0.0,30.9,72.6,1001.7,274.2,1.6,3.5,239.2,0.30,25.4,25.7,"13:32:32",1
"23/09/21","13:50",0.0,30.5,72.1,1001.5,242.2,2.5,6.4,237.2,0.15,24.9,25.9,"13:45:52",1
"23/09/21","14:00",0.0,30.1,73.4,1001.5,228.2,2.8,6.5,229.7,0.11,24.9,25.7,"13:56:08",1
"23/09/21","14:10",0.0,30.0,73.7,1001.0,243.6,1.8,7.5,213.6,0.10,24.8,25.9,"14:01:36",1
"23/09/21","14:20",0.0,30.2,74.3,1001.0,238.8,1.2,3.6,228.1,0.13,25.2,25.9,"14:12:24",1
"23/09/21","14:30",0.0,30.1,73.6,1001.2,230.8,1.7,4.4,219.6,0.13,24.9,25.9,"14:24:56",1
"23/09/21","14:40",0.0,30.2,73.3,1001.0,250.8,1.6,4.5,329.8,0.15,24.9,26.0,"14:38:40",1
"23/09/21","14:50",0.0,30.3,73.1,1001.2,269.2,2.0,4.9,326.8,0.15,25.0,26.0,"14:48:32",1
"23/09/21","15:00",0.0,30.3,73.5,1001.0,253.1,1.5,3.5,212.9,0.12,25.1,25.9,"14:52:08",1
"23/09/21","15:10",0.0,30.2,73.7,1001.0,264.8,1.6,6.2,275.5,0.12,25.0,26.1,"15:06:08",1
"23/09/21","15:20",0.0,30.1,73.2,1000.8,266.3,1.7,4.1,223.8,0.11,24.8,26.0,"15:12:00",1
"23/09/21","15:30",0.0,30.1,73.5,1001.0,277.6,1.6,4.3,221.2,0.09,24.9,25.9,"15:22:24",1
"23/09/21","15:40",0.0,30.1,73.9,1000.8,250.5,2.0,4.8,233.1,0.07,25.0,25.9,"15:39:52",1
"23/09/21","15:50",0.0,30.0,73.8,1000.5,246.5,1.8,5.0,240.8,0.07,24.9,26.0,"15:46:32",1
"23/09/21","16:00",0.0,30.0,74.1,1000.8,239.8,1.7,3.6,239.7,0.08,24.9,26.0,"15:53:44",1
"23/09/21","16:10",0.0,30.0,73.9,1000.8,257.4,1.5,3.6,226.2,0.07,24.9,26.0,"16:05:04",1
"23/09/21","16:20",0.0,30.0,74.3,1000.5,257.7,1.5,3.3,237.9,0.06,25.0,25.9,"16:15:12",1
"23/09/21","16:30",0.0,29.9,74.6,1000.3,253.9,2.1,5.4,237.2,0.06,24.9,26.0,"16:28:56",1
"23/09/21","16:40",0.0,29.8,74.8,999.8,250.7,1.5,4.4,227.4,0.03,24.9,26.1,"16:31:36",1
"23/09/21","16:50",0.0,29.5,75.6,999.6,240.6,2.1,4.8,232.3,0.02,24.8,26.3,"16:45:04",1
"23/09/21","17:00",0.0,29.4,76.1,999.8,243.0,2.3,6.6,221.0,0.01,24.8,26.2,"16:51:52",1
"23/09/21","17:10",0.0,29.2,76.9,999.3,230.1,1.1,3.3,234.1,0.00,24.8,26.1,"17:09:04",1
"23/09/21","17:20",0.0,29.0,77.5,999.6,270.2,2.0,7.4,245.2,0.00,24.7,26.1,"17:13:36",1
"23/09/21","17:30",0.0,28.9,78.1,999.8,266.4,1.3,4.0,351.1,0.00,24.7,26.2,"17:26:08",1
"23/09/21","17:40",0.0,28.8,78.7,1000.3,272.1,1.3,3.6,303.2,0.00,24.8,26.1,"17:36:40",1
"23/09/21","17:50",1.2,28.5,80.5,1000.3,250.3,1.2,2.8,234.6,0.00,24.9,26.1,"17:45:20",1
"23/09/21","18:00",0.2,27.8,82.8,1000.8,235.1,1.5,4.0,236.2,0.00,24.6,25.9,"17:50:24",1
"23/09/21","18:10",0.0,27.5,84.7,1000.5,273.8,1.0,3.2,239.5,0.00,24.7,26.0,"18:07:04",1
"23/09/21","18:20",0.0,27.3,86.2,1001.0,346.3,1.3,2.5,334.8,0.00,24.8,26.1,"18:18:48",1
"23/09/21","18:30",3.4,26.7,87.5,1001.5,326.0,1.5,3.5,351.1,0.00,24.5,26.1,"18:29:36",1
"23/09/21","18:40",4.6,26.1,88.7,1000.8,280.8,1.6,5.0,249.8,0.00,24.1,26.0,"18:38:20",1
"23/09/21","18:50",0.0,26.0,89.5,1000.8,327.6,1.3,4.9,350.6,0.00,24.2,26.0,"18:47:28",1
"23/09/21","19:00",0.0,25.9,89.9,1001.0,298.5,0.5,1.3,317.6,0.00,24.2,25.8,"18:52:16",1
"23/09/21","19:10",0.0,25.9,90.4,1000.8,271.4,0.5,1.1,249.2,0.00,24.2,25.9,"19:03:20",1
"23/09/21","19:20",0.0,25.8,90.7,1001.5,330.5,0.5,1.1,345.3,0.00,24.2,25.7,"19:16:48",1
"23/09/21","19:30",0.2,25.7,91.0,1001.7,353.3,0.3,1.1,11.5,0.00,24.2,25.9,"19:20:08",1
"23/09/21","19:40",0.0,25.6,91.3,1002.2,167.8,0.5,1.4,347.0,0.00,24.1,25.8,"19:39:36",1
"23/09/21","19:50",0.0,25.7,91.6,1002.2,357.1,0.8,1.6,346.9,0.00,24.3,25.9,"19:44:48",1
"23/09/21","20:00",0.0,25.5,92.0,1001.9,342.9,0.6,1.6,341.1,0.00,24.1,25.7,"19:59:20",1
"23/09/21","20:10",0.0,25.4,92.2,1002.2,302.1,0.7,1.3,350.9,0.00,24.1,25.7,"20:09:04",1
"23/09/21","20:20",0.0,25.2,92.5,1002.2,304.1,0.7,1.4,261.0,0.00,23.9,25.7,"20:11:44",1
"23/09/21","20:30",0.0,25.1,92.7,1002.6,20.3,0.3,1.1,347.8,0.00,23.9,25.7,"20:23:20",1
"23/09/21","20:40",0.0,25.0,93.0,1002.6,257.1,0.2,0.8,231.3,0.00,23.8,25.9,"20:37:28",1
"23/09/21","20:50",0.0,25.0,93.1,1002.9,18.0,0.6,1.7,31.9,0.00,23.8,25.8,"20:49:44",1
"23/09/21","21:00",0.0,24.7,93.3,1003.1,357.8,0.8,2.5,352.3,0.00,23.6,25.7,"20:59:36",1
"23/09/21","21:10",0.0,24.4,93.5,1003.6,352.1,1.2,2.7,356.1,0.00,23.3,25.8,"21:06:32",1
"23/09/21","21:20",0.0,24.4,93.5,1003.4,339.8,0.7,1.9,359.9,0.00,23.3,25.7,"21:10:32",1
"23/09/21","21:30",0.0,24.3,93.5,1002.9,286.8,0.5,1.0,318.1,0.00,23.2,25.8,"21:27:52",1
"23/09/21","21:40",0.0,24.3,93.7,1003.1,333.5,0.8,2.5,339.5,0.00,23.3,25.6,"21:38:24",1
"23/09/21","21:50",0.0,24.1,93.6,1003.4,335.2,0.7,1.7,337.9,0.00,23.0,25.8,"21:48:16",1
"23/09/21","22:00",0.0,23.9,93.8,1003.1,329.1,0.3,1.2,340.6,0.00,22.9,25.7,"21:50:02",1
"23/09/21","22:10",0.0,23.7,93.9,1003.4,340.8,1.0,2.0,8.6,0.00,22.7,25.7,"22:02:08",1
"23/09/21","22:20",0.0,23.7,93.9,1003.6,25.4,0.5,1.2,38.1,0.00,22.7,25.7,"22:13:04",1
"23/09/21","22:30",0.0,23.6,94.0,1003.6,317.3,1.0,2.0,320.5,0.00,22.6,25.7,"22:25:52",1
"23/09/21","22:40",0.0,23.8,94.0,1003.8,318.9,0.8,1.7,344.7,0.00,22.8,25.6,"22:33:44",1
"23/09/21","22:50",0.0,23.7,93.9,1004.1,338.7,0.5,1.1,321.6,0.00,22.7,25.5,"22:46:32",1
"23/09/21","23:00",0.0,23.5,94.0,1003.8,298.1,0.6,1.4,341.6,0.00,22.5,25.3,"22:52:08",1
"23/09/21","23:10",0.0,23.4,94.3,1004.3,252.2,0.3,1.0,244.0,0.00,22.5,25.6,"23:08:56",1
"23/09/21","23:20",0.0,23.3,94.2,1004.3,263.5,0.5,1.1,256.8,0.00,22.4,25.5,"23:18:40",1
"23/09/21","23:30",0.0,23.4,94.2,1004.1,340.6,0.6,1.4,345.2,0.00,22.5,25.3,"23:20:02",1
"23/09/21","23:40",0.0,23.4,94.3,1004.1,334.5,1.2,2.0,323.4,0.00,22.5,25.4,"23:39:20",1
"23/09/21","23:50",0.0,23.4,94.4,1004.1,331.1,1.5,2.9,339.3,0.00,22.5,25.2,"23:40:56",1
"23/09/21","24:00",0.0,23.3,94.4,1004.1,334.0,1.6,2.5,345.6,0.00,22.4,25.4,"23:52:16",1
